Simultaneous Nadir Overpasses (SNOs) Predictions

Prediction of SNOs between METOP-A and NOAA-19 Satellite Orbit:

Table of predicted SNOs for the next 14.0 days since TLE Epoch: 10/30/2021
Index Date (METOP-A) Time (METOP-A) Lat,Lon (METOP-A) SZA (METOP-A ) Date (NOAA-19) Time (NOAA-19) Lat,Lon (NOAA-19) SZA (NOAA-19 ) Distance(km) Time Diff (sec)
1 11/05/2021 13:39:34 -80.11, 151.28 84.10 11/05/2021 13:38:25 -80.10, 151.13 84.11 3.27 69
2 11/05/2021 14:30:14 80.13, -41.27 95.93 11/05/2021 14:29:24 80.12, -41.30 95.93 0.66 50
3 11/05/2021 15:20:55 -80.13, 126.09 84.06 11/05/2021 15:20:24 -80.13, 126.02 84.06 1.45 31
4 11/05/2021 16:11:35 80.14, -66.46 95.97 11/05/2021 16:11:23 80.15, -66.42 95.98 1.22 12
5 11/05/2021 17:02:15 -80.18, 101.20 83.99 11/05/2021 17:02:22 -80.18, 101.23 83.99 0.50 7
6 11/05/2021 17:52:55 80.19, -91.35 96.04 11/05/2021 17:53:21 80.20, -91.21 96.05 2.98 26
7 11/05/2021 18:43:36 -80.19, 76.01 83.95 11/05/2021 18:44:21 -80.20, 76.12 83.94 2.32 45



Historial Predications of SNOs between METOP-A and NOAA-19
